• în Republica Moldova
  • Lista ţărilor
  • Pe 7 zile
  • Temperatura apei
  • Hartă satelitară
  • Meteo pe hartă
  • Widget-uri
  • user-avatar
    Intrare

    Meteo pe oră la Tirana

    Astăzi, 24 Septembrie, Luni

    Timp Temperatura Precipitaţii Vânt Presiune Umiditate
    00:00 +23°C° 0 mm 2 m/s 755 mmHg 51%
    01:00 +23°C° 0 mm 2 m/s 755 mmHg 51%
    02:00 +21°C° 0 mm 3 m/s 754 mmHg 50%
    03:00 +21°C° 0 mm 3 m/s 754 mmHg 49%
    04:00 +21°C° 0 mm 3 m/s 754 mmHg 49%
    05:00 +22°C° 0 mm 3 m/s 754 mmHg 47%
    06:00 +24°C° 0 mm 3 m/s 754 mmHg 45%
    07:00 +25°C° 0 mm 4 m/s 753 mmHg 43%
    08:00 +27°C° 0 mm 4 m/s 753 mmHg 40%
    09:00 +28°C° 0 mm 4 m/s 753 mmHg 37%
    10:00 +30°C° 0 mm 4 m/s 753 mmHg 33%
    11:00 +32°C° 0.1 mm 4 m/s 753 mmHg 34%
    12:00 +32°C° 0.1 mm 4 m/s 753 mmHg 35%
    13:00 +33°C° 0.1 mm 4 m/s 753 mmHg 35%
    14:00 +32°C° 0.3 mm 4 m/s 753 mmHg 40%
    15:00 +32°C° 0.3 mm 4 m/s 753 mmHg 45%
    16:00 +30°C° 0.3 mm 4 m/s 753 mmHg 51%
    17:00 +28°C° 0.5 mm 4 m/s 753 mmHg 56%
    18:00 +26°C° 0.5 mm 4 m/s 754 mmHg 62%
    19:00 +23°C° 0.5 mm 4 m/s 755 mmHg 67%
    20:00 +22°C° 0 mm 4 m/s 755 mmHg 66%
    21:00 +21°C° 0 mm 5 m/s 756 mmHg 64%
    22:00 +21°C° 0 mm 5 m/s 756 mmHg 63%
    23:00 +20°C° 0 mm 6 m/s 757 mmHg 61%

    Mâine, 25 Septembrie, Marţi

    Timp Temperatura Precipitaţii Vânt Presiune Umiditate
    00:00 +19°C° 0 mm 6 m/s 757 mmHg 58%
    01:00 +17°C° 0 mm 7 m/s 757 mmHg 56%
    02:00 +17°C° 0 mm 7 m/s 757 mmHg 55%
    03:00 +16°C° 0 mm 7 m/s 758 mmHg 55%
    04:00 +16°C° 0 mm 7 m/s 758 mmHg 55%
    05:00 +16°C° 0 mm 7 m/s 758 mmHg 53%
    06:00 +16°C° 0 mm 7 m/s 758 mmHg 51%
    07:00 +16°C° 0 mm 8 m/s 759 mmHg 49%
    08:00 +18°C° 0 mm 7 m/s 759 mmHg 43%
    09:00 +21°C° 0 mm 7 m/s 759 mmHg 37%
    10:00 +23°C° 0 mm 7 m/s 759 mmHg 32%
    11:00 +24°C° 0 mm 7 m/s 759 mmHg 30%
    12:00 +26°C° 0 mm 7 m/s 758 mmHg 27%
    13:00 +27°C° 0 mm 6 m/s 758 mmHg 25%
    14:00 +26°C° 0 mm 7 m/s 758 mmHg 25%
    15:00 +26°C° 0 mm 7 m/s 758 mmHg 26%
    16:00 +24°C° 0 mm 8 m/s 758 mmHg 26%
    17:00 +22°C° 0 mm 8 m/s 759 mmHg 28%
    18:00 +21°C° 0 mm 8 m/s 759 mmHg 29%
    19:00 +18°C° 0 mm 8 m/s 760 mmHg 30%
    20:00 +17°C° 0 mm 8 m/s 760 mmHg 32%
    21:00 +16°C° 0 mm 8 m/s 761 mmHg 34%
    22:00 +13°C° 0 mm 8 m/s 761 mmHg 36%
    23:00 +13°C° 0 mm 8 m/s 761 mmHg 37%

    Poimâine, 26 Septembrie, Miercuri

    Timp Temperatura Precipitaţii Vânt Presiune Umiditate
    00:00 +12°C° 0 mm 8 m/s 762 mmHg 39%
    01:00 +11°C° 0 mm 8 m/s 762 mmHg 40%
    02:00 +11°C° 0 mm 7 m/s 762 mmHg 41%
    03:00 +10°C° 0 mm 7 m/s 762 mmHg 41%
    04:00 +10°C° 0 mm 7 m/s 762 mmHg 42%
    05:00 +11°C° 0 mm 7 m/s 762 mmHg 40%
    06:00 +11°C° 0 mm 7 m/s 762 mmHg 38%
    07:00 +12°C° 0 mm 7 m/s 763 mmHg 37%
    08:00 +15°C° 0 mm 8 m/s 763 mmHg 33%
    09:00 +17°C° 0 mm 8 m/s 763 mmHg 29%
    10:00 +20°C° 0 mm 8 m/s 763 mmHg 25%
    11:00 +21°C° 0 mm 8 m/s 762 mmHg 23%
    12:00 +21°C° 0 mm 8 m/s 762 mmHg 22%
    13:00 +22°C° 0 mm 8 m/s 762 mmHg 21%
    14:00 +22°C° 0 mm 8 m/s 762 mmHg 22%
    15:00 +21°C° 0 mm 8 m/s 762 mmHg 23%
    16:00 +21°C° 0 mm 8 m/s 762 mmHg 23%
    17:00 +18°C° 0 mm 8 m/s 762 mmHg 27%
    18:00 +16°C° 0 mm 7 m/s 763 mmHg 31%
    19:00 +14°C° 0 mm 7 m/s 764 mmHg 35%
    20:00 +12°C° 0 mm 7 m/s 764 mmHg 38%
    21:00 +11°C° 0 mm 7 m/s 764 mmHg 40%
    22:00 +10°C° 0 mm 6 m/s 765 mmHg 42%
    23:00 +10°C° 0 mm 6 m/s 765 mmHg 44%

    27 Septembrie, Joi

    Timp Temperatura Precipitaţii Vânt Presiune Umiditate
    00:00 +9°C° 0 mm 6 m/s 764 mmHg 45%
    01:00 +9°C° 0 mm 6 m/s 764 mmHg 46%
    02:00 +8°C° 0 mm 6 m/s 764 mmHg 47%
    03:00 +8°C° 0 mm 5 m/s 764 mmHg 47%
    04:00 +8°C° 0 mm 5 m/s 763 mmHg 48%
    05:00 +9°C° 0 mm 5 m/s 763 mmHg 45%
    06:00 +10°C° 0 mm 5 m/s 763 mmHg 43%
    07:00 +12°C° 0 mm 5 m/s 763 mmHg 40%
    08:00 +14°C° 0 mm 4 m/s 762 mmHg 33%
    09:00 +18°C° 0 mm 4 m/s 762 mmHg 27%
    10:00 +20°C° 0 mm 4 m/s 762 mmHg 21%
    11:00 +21°C° 0 mm 5 m/s 761 mmHg 18%
    12:00 +23°C° 0 mm 5 m/s 760 mmHg 16%
    13:00 +24°C° 0 mm 6 m/s 759 mmHg 14%
    14:00 +24°C° 0 mm 6 m/s 759 mmHg 15%
    15:00 +24°C° 0 mm 6 m/s 758 mmHg 15%
    16:00 +24°C° 0 mm 7 m/s 758 mmHg 16%
    17:00 +21°C° 0 mm 7 m/s 758 mmHg 19%
    18:00 +19°C° 0 mm 6 m/s 758 mmHg 23%
    19:00 +15°C° 0 mm 6 m/s 758 mmHg 27%
    20:00 +14°C° 0 mm 6 m/s 758 mmHg 29%
    21:00 +14°C° 0 mm 6 m/s 758 mmHg 31%
    22:00 +13°C° 0 mm 6 m/s 758 mmHg 34%
    23:00 +13°C° 0 mm 5 m/s 758 mmHg 33%

    28 Septembrie, Vineri

    Timp Temperatura Precipitaţii Vânt Presiune Umiditate
    00:00 +13°C° 0 mm 5 m/s 757 mmHg 33%
    01:00 +13°C° 0 mm 5 m/s 757 mmHg 33%
    02:00 +13°C° 0 mm 5 m/s 757 mmHg 32%
    03:00 +14°C° 0 mm 5 m/s 756 mmHg 30%
    04:00 +14°C° 0 mm 4 m/s 756 mmHg 29%
    05:00 +14°C° 0 mm 4 m/s 756 mmHg 29%
    06:00 +15°C° 0 mm 4 m/s 756 mmHg 28%
    07:00 +17°C° 0 mm 4 m/s 755 mmHg 28%
    08:00 +19°C° 0 mm 4 m/s 755 mmHg 24%
    09:00 +22°C° 0 mm 3 m/s 755 mmHg 20%
    10:00 +25°C° 0 mm 3 m/s 755 mmHg 16%
    11:00 +26°C° 0 mm 3 m/s 754 mmHg 18%
    12:00 +27°C° 0 mm 3 m/s 754 mmHg 19%
    13:00 +28°C° 0 mm 3 m/s 754 mmHg 21%
    14:00 +28°C° 0 mm 4 m/s 753 mmHg 22%
    15:00 +28°C° 0 mm 4 m/s 753 mmHg 24%
    16:00 +28°C° 0 mm 5 m/s 753 mmHg 26%
    17:00 +25°C° 0 mm 4 m/s 753 mmHg 31%
    18:00 +22°C° 0 mm 4 m/s 754 mmHg 37%
    19:00 +19°C° 0 mm 3 m/s 754 mmHg 42%
    20:00 +19°C° 0 mm 3 m/s 754 mmHg 43%
    21:00 +18°C° 0 mm 3 m/s 754 mmHg 43%
    22:00 +18°C° 0 mm 3 m/s 754 mmHg 44%
    23:00 +17°C° 0 mm 3 m/s 754 mmHg 43%

    29 Septembrie, Sâmbătă

    Timp Temperatura Precipitaţii Vânt Presiune Umiditate
    00:00 +17°C° 0 mm 3 m/s 754 mmHg 42%
    01:00 +17°C° 0 mm 3 m/s 754 mmHg 41%
    02:00 +17°C° 0 mm 3 m/s 753 mmHg 40%
    03:00 +16°C° 0 mm 3 m/s 753 mmHg 39%
    04:00 +16°C° 0 mm 3 m/s 753 mmHg 39%
    05:00 +17°C° 0 mm 2 m/s 753 mmHg 38%
    06:00 +18°C° 0 mm 2 m/s 754 mmHg 38%
    07:00 +19°C° 0 mm 2 m/s 754 mmHg 37%
    08:00 +21°C° 0 mm 2 m/s 754 mmHg 34%
    09:00 +25°C° 0 mm 2 m/s 754 mmHg 31%
    10:00 +27°C° 0 mm 2 m/s 754 mmHg 28%
    11:00 +28°C° 0 mm 3 m/s 753 mmHg 27%
    12:00 +29°C° 0 mm 3 m/s 753 mmHg 26%
    13:00 +29°C° 0 mm 4 m/s 753 mmHg 25%
    14:00 +29°C° 0 mm 5 m/s 753 mmHg 26%
    15:00 +29°C° 0 mm 5 m/s 753 mmHg 26%
    16:00 +28°C° 0 mm 6 m/s 753 mmHg 27%
    17:00 +26°C° 0 mm 5 m/s 753 mmHg 32%
    18:00 +22°C° 0 mm 5 m/s 754 mmHg 38%
    19:00 +20°C° 0 mm 4 m/s 754 mmHg 43%
    20:00 +19°C° 0 mm 4 m/s 755 mmHg 43%
    21:00 +19°C° 0 mm 4 m/s 755 mmHg 42%
    22:00 +18°C° 0 mm 3 m/s 755 mmHg 41%
    23:00 +18°C° 0 mm 3 m/s 755 mmHg 41%
    Arată mai mult

    3.3.7123123